When you browse on this site, cookies collect data to enhance your experience and personalize the content and advertising you see.
Visit our Privacy Policy to learn more. By continuing to use the site, you agree to this use of cookies and data.
  • In Czech Republic
  • List of Countries
  • For 7 days
  • Water Temperature
  • Satellite Maps
  • Weather Map
  • Weather Widgets
  • user-avatar
    Login

    Hourly Weather Kapan

    Today, 24 May, Friday

    Time Temperature Precipitation Wind Pressure Humidity
    00:00 +17°C° 0 mm 2 mps 683 mmHg 76%
    01:00 +17°C° 0 mm 2 mps 683 mmHg 75%
    02:00 +16°C° 0 mm 2 mps 683 mmHg 75%
    03:00 +16°C° 0 mm 2 mps 683 mmHg 75%
    04:00 +17°C° 0 mm 2 mps 683 mmHg 72%
    05:00 +18°C° 0 mm 2 mps 684 mmHg 69%
    06:00 +19°C° 0 mm 2 mps 684 mmHg 65%
    07:00 +21°C° 0 mm 2 mps 684 mmHg 58%
    08:00 +24°C° 0 mm 2 mps 684 mmHg 50%
    09:00 +27°C° 0 mm 3 mps 684 mmHg 42%
    10:00 +28°C° 0.2 mm 3 mps 684 mmHg 39%
    11:00 +29°C° 0.2 mm 3 mps 684 mmHg 36%
    12:00 +30°C° 0.2 mm 3 mps 684 mmHg 33%
    13:00 +30°C° 0.2 mm 3 mps 684 mmHg 34%
    14:00 +30°C° 0.2 mm 3 mps 684 mmHg 35%
    15:00 +30°C° 0.2 mm 3 mps 684 mmHg 36%
    16:00 +28°C° 0.5 mm 3 mps 684 mmHg 42%
    17:00 +27°C° 0.5 mm 3 mps 683 mmHg 49%
    18:00 +25°C° 0.5 mm 2 mps 683 mmHg 55%
    19:00 +23°C° 0.2 mm 2 mps 683 mmHg 62%
    20:00 +21°C° 0.2 mm 1 mps 684 mmHg 69%
    21:00 +19°C° 0.2 mm 1 mps 684 mmHg 76%
    22:00 +19°C° 0.1 mm 1 mps 684 mmHg 74%
    23:00 +19°C° 0.1 mm 1 mps 684 mmHg 73%

    Tomorrow, 25 May, Saturday

    Time Temperature Precipitation Wind Pressure Humidity
    00:00 +19°C° 0.1 mm 1 mps 684 mmHg 71%
    01:00 +19°C° 0 mm 1 mps 684 mmHg 68%
    02:00 +19°C° 0 mm 1 mps 684 mmHg 64%
    03:00 +18°C° 0 mm 2 mps 685 mmHg 60%
    04:00 +20°C° 0 mm 1 mps 685 mmHg 59%
    05:00 +21°C° 0 mm 1 mps 685 mmHg 58%
    06:00 +22°C° 0 mm 1 mps 685 mmHg 56%
    07:00 +24°C° 0 mm 1 mps 686 mmHg 49%
    08:00 +27°C° 0 mm 2 mps 686 mmHg 42%
    09:00 +29°C° 0 mm 2 mps 686 mmHg 35%
    10:00 +31°C° 0 mm 3 mps 686 mmHg 32%
    11:00 +33°C° 0 mm 3 mps 686 mmHg 28%
    12:00 +35°C° 0 mm 4 mps 686 mmHg 24%
    13:00 +33°C° 0.2 mm 3 mps 685 mmHg 29%
    14:00 +31°C° 0.2 mm 3 mps 685 mmHg 34%
    15:00 +30°C° 0.2 mm 3 mps 684 mmHg 40%
    16:00 +29°C° 0.1 mm 3 mps 684 mmHg 44%
    17:00 +28°C° 0.1 mm 2 mps 684 mmHg 49%
    18:00 +27°C° 0.1 mm 2 mps 684 mmHg 53%
    19:00 +25°C° 0.6 mm 2 mps 684 mmHg 57%
    20:00 +24°C° 0.6 mm 2 mps 684 mmHg 61%
    21:00 +21°C° 0.6 mm 3 mps 683 mmHg 64%
    22:00 +21°C° 0 mm 3 mps 683 mmHg 62%
    23:00 +20°C° 0 mm 3 mps 683 mmHg 59%

    Day after tomorrow, 26 May, Sunday

    Time Temperature Precipitation Wind Pressure Humidity
    00:00 +20°C° 0 mm 3 mps 683 mmHg 56%
    01:00 +20°C° 0 mm 3 mps 683 mmHg 53%
    02:00 +20°C° 0 mm 3 mps 683 mmHg 51%
    03:00 +20°C° 0 mm 2 mps 683 mmHg 48%
    04:00 +20°C° 0.1 mm 2 mps 683 mmHg 49%
    05:00 +21°C° 0.1 mm 2 mps 683 mmHg 50%
    06:00 +23°C° 0.1 mm 1 mps 684 mmHg 52%
    07:00 +25°C° 0 mm 2 mps 684 mmHg 45%
    08:00 +28°C° 0 mm 2 mps 684 mmHg 39%
    09:00 +30°C° 0 mm 3 mps 684 mmHg 32%
    10:00 +31°C° 0 mm 3 mps 684 mmHg 30%
    11:00 +33°C° 0 mm 4 mps 684 mmHg 27%
    12:00 +35°C° 0 mm 5 mps 684 mmHg 24%
    13:00 +33°C° 0.4 mm 4 mps 683 mmHg 33%
    14:00 +30°C° 0.4 mm 4 mps 683 mmHg 42%
    15:00 +28°C° 0.4 mm 3 mps 682 mmHg 50%
    16:00 +27°C° 0.4 mm 3 mps 682 mmHg 55%
    17:00 +26°C° 0.4 mm 2 mps 681 mmHg 60%
    18:00 +24°C° 0.4 mm 2 mps 681 mmHg 65%
    19:00 +23°C° 0.1 mm 2 mps 682 mmHg 70%
    20:00 +21°C° 0.1 mm 1 mps 682 mmHg 75%
    21:00 +20°C° 0.1 mm 1 mps 682 mmHg 79%
    22:00 +19°C° 0 mm 1 mps 683 mmHg 79%
    23:00 +19°C° 0 mm 1 mps 683 mmHg 79%

    27 May, Monday

    Time Temperature Precipitation Wind Pressure Humidity
    00:00 +18°C° 0 mm 1 mps 683 mmHg 79%
    01:00 +18°C° 0 mm 1 mps 683 mmHg 80%
    02:00 +16°C° 0 mm 1 mps 683 mmHg 80%
    03:00 +16°C° 0 mm 1 mps 683 mmHg 81%
    04:00 +16°C° 0 mm 0 mps 684 mmHg 78%
    05:00 +17°C° 0 mm 0 mps 684 mmHg 74%
    06:00 +18°C° 0 mm 0 mps 685 mmHg 71%
    07:00 +21°C° 0 mm 1 mps 685 mmHg 64%
    08:00 +23°C° 0 mm 2 mps 686 mmHg 57%
    09:00 +25°C° 0 mm 2 mps 686 mmHg 50%
    10:00 +26°C° 0 mm 3 mps 686 mmHg 47%
    11:00 +27°C° 0 mm 3 mps 686 mmHg 45%
    12:00 +28°C° 0 mm 4 mps 686 mmHg 42%
    13:00 +27°C° 0.5 mm 4 mps 686 mmHg 44%
    14:00 +27°C° 0.5 mm 4 mps 685 mmHg 45%
    15:00 +27°C° 0.5 mm 4 mps 685 mmHg 47%
    16:00 +26°C° 0.6 mm 4 mps 685 mmHg 52%
    17:00 +25°C° 0.6 mm 3 mps 685 mmHg 56%
    18:00 +24°C° 0.6 mm 3 mps 685 mmHg 61%
    19:00 +21°C° 0.3 mm 2 mps 686 mmHg 69%
    20:00 +20°C° 0.3 mm 1 mps 686 mmHg 77%
    21:00 +18°C° 0.3 mm 1 mps 686 mmHg 84%
    22:00 +18°C° 0.1 mm 1 mps 687 mmHg 86%
    23:00 +16°C° 0.1 mm 1 mps 687 mmHg 87%

    28 May, Tuesday

    Time Temperature Precipitation Wind Pressure Humidity
    00:00 +16°C° 0.1 mm 1 mps 687 mmHg 88%
    01:00 +16°C° 0 mm 1 mps 687 mmHg 88%
    02:00 +16°C° 0 mm 1 mps 687 mmHg 88%
    03:00 +15°C° 0 mm 1 mps 687 mmHg 88%
    04:00 +16°C° 0 mm 1 mps 687 mmHg 85%
    05:00 +18°C° 0 mm 1 mps 688 mmHg 82%
    06:00 +19°C° 0 mm 1 mps 688 mmHg 79%
    07:00 +19°C° 0 mm 2 mps 688 mmHg 74%
    08:00 +20°C° 0 mm 2 mps 689 mmHg 68%
    09:00 +21°C° 0 mm 3 mps 689 mmHg 63%
    10:00 +22°C° 0.1 mm 3 mps 689 mmHg 61%
    11:00 +22°C° 0.1 mm 3 mps 688 mmHg 59%
    12:00 +24°C° 0.1 mm 3 mps 688 mmHg 57%
    13:00 +24°C° 0.1 mm 3 mps 688 mmHg 55%
    14:00 +24°C° 0.1 mm 3 mps 688 mmHg 54%
    15:00 +25°C° 0.1 mm 3 mps 688 mmHg 52%
    16:00 +24°C° 0.1 mm 3 mps 687 mmHg 56%
    17:00 +22°C° 0.1 mm 3 mps 687 mmHg 59%
    18:00 +21°C° 0.1 mm 3 mps 687 mmHg 62%
    19:00 +20°C° 0 mm 2 mps 687 mmHg 69%
    20:00 +18°C° 0 mm 2 mps 688 mmHg 76%
    21:00 +16°C° 0 mm 1 mps 688 mmHg 83%
    22:00 +16°C° 0 mm 1 mps 688 mmHg 84%
    23:00 +16°C° 0 mm 1 mps 688 mmHg 85%

    29 May, Wednesday

    Time Temperature Precipitation Wind Pressure Humidity
    00:00 +16°C° 0 mm 1 mps 688 mmHg 87%
    01:00 +15°C° 0 mm 1 mps 688 mmHg 86%
    02:00 +15°C° 0 mm 1 mps 688 mmHg 85%
    03:00 +15°C° 0 mm 1 mps 687 mmHg 85%
    04:00 +16°C° 0 mm 1 mps 688 mmHg 80%
    05:00 +18°C° 0 mm 1 mps 688 mmHg 76%
    06:00 +19°C° 0 mm 1 mps 688 mmHg 72%
    07:00 +20°C° 0 mm 1 mps 689 mmHg 65%
    08:00 +21°C° 0 mm 2 mps 689 mmHg 58%
    09:00 +24°C° 0 mm 2 mps 689 mmHg 51%
    10:00 +25°C° 0 mm 2 mps 689 mmHg 47%
    11:00 +25°C° 0 mm 3 mps 688 mmHg 44%
    12:00 +26°C° 0 mm 3 mps 688 mmHg 41%
    13:00 +27°C° 0 mm 3 mps 688 mmHg 40%
    14:00 +27°C° 0 mm 3 mps 687 mmHg 40%
    15:00 +27°C° 0 mm 3 mps 687 mmHg 40%
    16:00 +26°C° 0.3 mm 3 mps 687 mmHg 43%
    17:00 +25°C° 0.3 mm 3 mps 687 mmHg 47%
    18:00 +24°C° 0.3 mm 2 mps 686 mmHg 50%
    19:00 +21°C° 0.4 mm 2 mps 686 mmHg 56%
    20:00 +19°C° 0.4 mm 2 mps 686 mmHg 62%
    21:00 +18°C° 0.4 mm 1 mps 686 mmHg 68%
    22:00 +18°C° 0.1 mm 1 mps 686 mmHg 70%
    23:00 +16°C° 0.1 mm 2 mps 686 mmHg 71%
    Show more